Regional Weather Roundup
Issued by NWS Charleston, SC

Current Version | Previous Version | Graphics & Text | Print | Product List | Glossary On
Versions: 1 2 3 4 5 6 7 8 9 10 11 12 13 14 15 16 17 18 19 20 21 22 23 24 25 26 27 28 29 30 31 32 33 34 35 36 37 38 39 40 41 42 43 44 45 46 47 48 49 50
000 ASUS42 KCHS 260912 RWRCHS REGIONAL WEATHER ROUNDUP NATIONAL WEATHER SERVICE CHARLESTON SC 500 AM EDT TUE MAY 26 2015 NOTE: "FAIR" INDICATES FEW OR NO CLOUDS BELOW 12,000 FEET WITH NO SIGNIFICANT WEATHER AND/OR OBSTRUCTIONS TO VISIBILITY. NOT ALL STATIONS ARE QUALITY CONTROLLED BY THE NATIONAL WEATHER SERVICE. USE DATA WITH CAUTION...ESPECIALLY DEWPOINT OBSERVATIONS. SCZ027-030-031-034>040-042>050-261000- ...SOUTHEAST SOUTH CAROLINA... CITY SKY/WX TMP DP RH WIND PRES REMARKS N CHARLESTON MOCLDY 73 70 90 SE3 30.23R WATERFRONT PAR N/A 75 73 93 SE7 30.19S MOUNT PLEASANT FAIR 72 70 94 CALM 30.23R JOHNS ISLAND PTSUNNY 73 73 100 CALM 30.22S PINOPOLIS N/A 72 68 88 CALM 30.14F MONCKS CORNER FAIR 68 66 94 CALM 30.23S SUMMERVILLE CLOUDY 68 68 100 CALM 30.23S BEAUFORT MCAS PTCLDY 71 69 93 CALM 30.22R FOG BEAUFORT ARPT FAIR 72 72 100 CALM 30.21S HILTON HEAD IS CLEAR 75 73 94 CALM 30.22S WALTERBORO MOSUNNY 63 63 100 CALM 30.23S ALLENDALE N/A 68 68 100 CALM 30.23R FOG ...SOUTHERN MIDLANDS AND PEE DEE... CITY SKY/WX TMP DP RH WIND PRES REMARKS GEORGETOWN NOT AVBL KINGSTREE NOT AVBL ORANGEBURG PTCLDY 65 63 93 CALM 30.24R FOG BARNWELL FOG 70 70 100 CALM 30.24S VSB 1 AIKEN CLOUDY 68 64 88 SE5 30.27S MANNING FAIR 61 39 44 CALM 30.23S COLUMBIA CLEAR 70 65 84 CALM 30.24R SUMTER CLEAR 65 63 93 N1 30.22S FLORENCE PTCLDY 65 63 93 NE3 30.24S MYRTLE BEACH MOCLDY 75 66 73 E8 30.26S N MYRTLE BEACH CLOUDY 75 68 78 SE5 30.24S $$ GAZ063-065-086>088-099>101-113>116-118-119-134>141-150-261000- ...SOUTHEAST GEORGIA... CITY SKY/WX TMP DP RH WIND PRES REMARKS SAVANNAH ARPT PTCLDY 70 68 93 CALM 30.21S HUNTER AAF PTCLDY 72 72 100 CALM 30.19R FORT STEWART PTCLDY 68 67 95 CALM 30.19 STATESBORO PTCLDY 68 32 26 CALM 30.22S SYLVANIA FOG 69 69 100 CALM 30.23S VSB 1/2 CLAXTON FOG 68 68 100 CALM 30.21S VSB 1/4 ...CSRA...CENTRAL AND FAR SOUTHEAST GEORGIA... CITY SKY/WX TMP DP RH WIND PRES REMARKS THOMSON CLOUDY 73 71 93 SE5 30.27S AUGUSTA-BUSH CLOUDY 70 69 97 SE5 30.22S AUGUSTA-DANIEL CLOUDY 72 68 87 SE9 30.24S SWAINSBORO CLOUDY N/A N/A N/A SE7 30.22S VIDALIA PTCLDY 70 70 100 E3 30.20F EASTMAN CLOUDY 72 72 100 SE6 30.21S HAZLEHURST CLOUDY 74 74 100 SE6 30.18F ALMA CLOUDY 72 71 97 E5 30.19S WAYCROSS PTCLDY 72 72 100 E3 30.19S JESUP FAIR 72 72 100 CALM 30.20S FOG BAXLEY CLOUDY 72 72 100 CALM 30.19F FOG BRUNSWICK CLOUDY 72 70 94 NE3 30.20S SAINT SIMONS NOT AVBL $$ SCZ027-028-034-036>038-045-046-048>050-GAZ119-141-261000- ...LAKE AND SUPPLEMENTAL COASTAL OBSERVATIONS... STATION/POSITION TIME TEMP WIND PRES WAVE SWELL AIR SEA DIR/SP/G HT/PER HT/PER/DIR (UTC) (F) (DEG/KT/KT) (MB) (FT/S) (FT/S/D) UPR LAKE MARION NOT AVBL WINYAH BAY 0745 75 90/ 7 1023.0 LAKE MURRAY 0800 71 130/ 4/ 7 1023.4S ACE BASIN NERRS NOT AVBL FORT PULASKI 0800 75 78 110/ 5/ 6 1023.3F SAPELO ISLAND 0800 75 110/ 2 1022.0F $$ ANZ835-935-AMZ111-154-330-350-352-354-370-450-454-472-261000- ...C-MAN AND BUOY OBSERVATIONS... STATION/POSITION TIME TEMP WIND PRES WAVE SWELL AIR SEA DIR/SP/G HT/PER HT/PER/DIR (UTC) (F) (DEG/KT/KT) (MB) (FT/S) (FT/S/D) BUOY 41004 0850 78 76 160/ 10/ 12 1022.9R 4/ 6 3/ 6 BUOY 41008 0850 76 75 140/ 6/ 6 1022.6S 3/ 8 3/ 90/ 8 FOLLY BEACH CMAN 0900 75 190/ 7/ 9 1023.5R CAPERS NEARSHORE 0808 75 130/ 8/ 12 1023.4F FRIPP NEARSHORE 0800 75 140/ 8/ 8 1022.5F STATION/POSITION TIME TEMP WIND PRES WAVE SWELL AIR SEA DIR/SP/G HT/PER HT/PER/DIR (UTC) (F) (DEG/KT/KT) (MB) (FT/S) (FT/S/D) 5E ST. MARYS GA 0821 78 N/A 3/ 8 FRYING PAN BUOY 0850 77 74 140/ 12/ 14 1024.8F 3/ 6 2/130/ 6 BUOY 41025 0850 75 77 170/ 14/ 17 1025.7R 3/ 6 2/ 90/ 7 CAPE LOOKOUT NC 0900 74 180/ 12/ 13 1025.1S BUOY 41002 0850 73 74 130/ 14/ 16 1025.9R 4/ 7 3/ 90/ 7 BUOY 41010 0820 79 81 110/ 14/ 16 1022.3F ST AUGUSTINE FL 0900 77 79 140/ 12/ 13 1022.8R $$

USA.gov is the U.S. government's official web portal to all federal, state and local government web resources and services.